Weather in Novoye Mansurkino

Russia / Samara Oblast     53°52′35″N   51°51′23″E
temp.,
°C
wind,
m/s
gust,
m/s
humid.,
%
clouds,
%
prec.,
mm/h
press.,
hPa
HPBL,
m
2 march, tue
tue201:00−20ssw2310024 0.0 101922
04:00−17ssw4119850 0.0 1017205
07:00−15ssw61397100 0.0 1012284
10:00−11ssw71394100 0.6 1010455
13:00−7sw91494100 1.7 1006603
16:00−4sw91594100 2.7 1003678
19:00−2sw81496100 0.9 1001707
22:000wsw51097100 2.3 1001607
3 march, wed
wed301:00−4wsw499686 0.4 1000197
04:00−8w369870 0.4 100195
07:00−9wsw359792 0.1 100191
10:00−7w479792 0.1 1003246
13:00−4w579497 0.1 1003489
16:00−4w589099 0.3 1003757
19:00−7w51095100 0.2 1004352
22:00−7wnw5119599 0.3 1006446
4 march, thu
thu401:00−9wnw489699 0.1 1006242
04:00−12w479899 0.2 1008141
07:00−14wsw369899 0.1 1008125
10:00−10sw599598 0.1 1009289
13:00−6sw61094100 0.2 1007533
16:00−5sw81293100 0.4 1006739
19:00−3sw91695100 0.7 1004814
22:00−2sw91692100 1.5 1002918
5 march, fri
fri501:00−1sw101692100 0.3 1001910
04:00−2sw101691100 0.4 1000873
07:00−2sw91695100 0.4 1001732
10:00−1wsw81496100 1.8 1003750
13:000wsw59100100 1.1 1005586
16:00−2nw3697100 3.6 1006389
19:00−4w2389100 0.5 100856
22:00−8nnw1293100 0.5 101021
6 march, sat
sat601:00−9ne1189100 0.0 101021
04:00−8e2596100 0.3 1008151
07:00−5ese6996100 2.6 1004266
10:00+1ssw81599100 6.1 1000730
13:00+1sw91699100 2.6 998727
16:00−4w61196100 4.9 999490
19:00−11nw5109498 0.3 1003270
22:00−13wnw359889 0.3 100791